Location: Namasale
(1.5000°N, 32.6167°E)
Time: 23:27:33
(UTC+00:00)

Vanguard 3 - Pass Details

Date: 06 December 2021
Orbit: 508 x 3260 km, 33.3° (Epoch: 27 January)

Event Time Altitude Azimuth Distance (km) Brightness Sun altitude
Rises 17:53:21 0° 190° (S) 3,826 11.1 -31.0°
Reaches altitude 10° 17:58:33 10° 157° (SSE) 3,481 10.4 -32.1°
Maximum altitude 18:01:14 11° 139° (SE) 3,675 10.3 -32.8°
Enters shadow 18:01:57 11° 135° (SE) 3,762 10.3 -32.9°
